Dati Storici

Data ora Umidita' aria (%) Temperatura aria (°C) Rad globale (W/m²) Gonioanemometro (°) Tacoanemometro (m/s) Pioggia (mm)
15-06-2020 04:50 97.8 % 18.463 -80.502 -0.011 0 0
15-06-2020 04:40 97.8 % 18.449 -77.42 -0.009 0 0
15-06-2020 04:30 97.8 % 18.445 -51.855 -0.009 0 0
15-06-2020 04:20 97.8 % 18.635 -51.222 -0.009 0 0
15-06-2020 04:10 97.8 % 18.676 -77.374 -0.009 0 0
15-06-2020 04:00 97.8 % 18.697 -79.888 -0.01 0 0
15-06-2020 03:50 97.8 % 18.691 -81.866 -0.011 0 0
15-06-2020 03:40 97.8 % 18.739 -56.268 -0.01 0 0
15-06-2020 03:30 97.8 % 18.709 -74.406 -0.008 0 0
15-06-2020 03:20 97.7 % 18.675 -77.63 -0.006 0 0
15-06-2020 03:10 97.7 % 18.811 -68.464 0.033 0 0
15-06-2020 03:00 97.7 % 18.96 -52.949 -0.009 0 0
15-06-2020 02:50 97.7 % 19.008 -76.904 -0.009 0 0
15-06-2020 02:40 97.7 % 19.009 -81.328 -0.009 0 0
15-06-2020 02:30 97.7 % 18.978 -82.28 -0.009 0 0
15-06-2020 02:20 97.7 % 18.946 -60.373 -0.011 0 0
15-06-2020 02:10 97.7 % 18.925 -76.746 -0.01 0 0
15-06-2020 02:00 97.7 % 18.987 -78.064 -0.009 0 0
15-06-2020 01:50 97.7 % 19.053 -79.146 -0.009 0 0
15-06-2020 01:40 97.7 % 19.05 -81.533 -0.007 0 0

I dati sono presentati in modo automatico a scopo informativo. In seguito a verifica i dati possono subire modifiche o essere invalidati e non riportati negli archivi definitivi.